Regional Weather Roundup
Issued by NWS Albany, NY

Home | Current Version | Previous Version | Text Only | Print | Product List | Glossary On
Versions: 1 2 3 4 5 6 7 8 9 10 11 12 13 14 15 16 17 18 19 20 21 22 23 24 25 26 27 28 29 30 31 32 33 34 35 36 37 38 39 40 41 42 43 44 45 46 47 48 49 50
000
ASUS41 KALY 312310
RWRALY

NEW YORK STATE HOURLY WEATHER ROUNDUP
NATIONAL WEATHER SERVICE ALBANY NY
700 PM EDT MON AUG 31 2015

NOTE: "FAIR" INDICATES FEW OR NO CLOUDS BELOW 12,000 FEET WITH NO
SIGNIFICANT WEATHER AND/OR NO OBSTRUCTIONS TO VISIBILITY.

NYZ032-033-038>043-046>054-057>066-NYZ062>081-010000-
EAST


CITY           SKY/WX    TMP DP  RH WIND       PRES   REMARKS
ALBANY         PTCLDY    81  62  52 NW9       29.95R
GLENS FALLS    PTCLDY    81  61  50 VRB7      29.93R
POUGHKEEPSIE   CLEAR     86  66  51 W6        29.93S
NEWBURGH       PTCLDY    82  70  65 W8        29.96S
MONTGOMERY     MOCLDY    83  69  62 W5        29.95S
WHITE PLAINS   PTCLDY    84  65  52 CALM      29.96R
ISLIP          MOCLDY    81  70  69 SW9       29.94S
NEW YORK CITY  MOCLDY    89  63  41 W15       29.94S HX  90
CENTRAL PARK   CLEAR     87  64  46 W8        29.98S
$$

NYZ005>009-017-018-044>046-055-056-010000-
CENTRAL


CITY           SKY/WX    TMP DP  RH WIND       PRES   REMARKS
FULTON         CLEAR     75  64  68 NW6       30.00S
SYRACUSE       PTCLDY    77  65  66 W9        29.99S
ROME           CLEAR     77  64  64 NW10      30.00S
ELMIRA         CLEAR     83  65  54 N7        30.00S
BINGHAMTON     CLEAR     77  64  64 NW5       30.04S
MONTICELLO     CLEAR     79  66  65 NW5       30.03S
$$

NYZ026>034-041>043-010000-
NORTH


CITY           SKY/WX    TMP DP  RH WIND       PRES   REMARKS
WATERTOWN      PTCLDY    74  67  78 SW6       29.98S HAZE
FORT DRUM      NOT AVBL
MASSENA        MOCLDY    74  63  68 W6        29.97R
SARANAC LAKE   CLEAR     70  62  76 VRB3      30.00R
PLATTSBURGH    CLEAR     75  64  68 NW9       29.93R
$$

NYZ001>004-010>016-019>021-010000-
WEST


CITY           SKY/WX    TMP DP  RH WIND       PRES   REMARKS
NIAGARA FALLS  PTCLDY    76  67  73 SW10      30.01S
BUFFALO        PTCLDY    75  66  73 SW14      30.03S
DUNKIRK        CLEAR     75  66  73 SW12      30.04F
JAMESTOWN      CLEAR     73  63  68 W7        30.09S
WELLSVILLE     CLEAR     77  64  64 NW9       30.11R
ROCHESTER      MOCLDY    78  66  66 NW5       30.01S
PENN YAN       CLEAR     79  65  62 VRB3      30.03S
$$

             KEY
       WCI = WIND CHILL INDEX
       VSB = VISIBILITY
       HX  = HEAT INDEX
$$


USA.gov is the U.S. government's official web portal to all federal, state and local government web resources and services.